TimeMDT,TemperatureF,Dew PointF,Humidity,Sea Level PressureIn,VisibilityMPH,Wind Direction,Wind SpeedMPH,Gust SpeedMPH,PrecipitationIn,Events,Conditions,WindDirDegrees,DateUTC
12:53 AM,46.0,33.1,61,29.88,10.0,SE,5.8,-,N/A,,Scattered Clouds,140,2013-05-22 06:53:00
1:53 AM,46.9,33.1,59,29.85,10.0,SE,4.6,-,N/A,,Partly Cloudy,140,2013-05-22 07:53:00
2:53 AM,42.1,33.1,70,29.84,10.0,SE,8.1,-,N/A,,Partly Cloudy,140,2013-05-22 08:53:00
3:53 AM,43.0,34.0,71,29.82,10.0,South,6.9,-,N/A,,Partly Cloudy,180,2013-05-22 09:53:00
4:53 AM,42.1,34.0,73,29.81,10.0,SW,4.6,-,N/A,,Partly Cloudy,230,2013-05-22 10:53:00
5:53 AM,44.1,35.1,71,29.81,10.0,WSW,8.1,-,N/A,,Scattered Clouds,240,2013-05-22 11:53:00
6:53 AM,48.9,36.0,61,29.81,10.0,WSW,4.6,-,N/A,,Scattered Clouds,240,2013-05-22 12:53:00
7:53 AM,55.0,35.1,47,29.82,10.0,West,6.9,-,N/A,,Scattered Clouds,270,2013-05-22 13:53:00
8:53 AM,57.0,35.1,44,29.83,10.0,West,5.8,-,N/A,,Scattered Clouds,280,2013-05-22 14:53:00
9:53 AM,61.0,36.0,39,29.83,10.0,Calm,Calm,-,N/A,,Partly Cloudy,0,2013-05-22 15:53:00
10:53 AM,64.9,36.0,34,29.81,10.0,Calm,Calm,-,N/A,,Partly Cloudy,0,2013-05-22 16:53:00
11:53 AM,69.1,36.0,30,29.80,10.0,Variable,4.6,-,N/A,,Partly Cloudy,0,2013-05-22 17:53:00
12:53 PM,72.0,35.1,26,29.77,10.0,East,9.2,-,N/A,,Partly Cloudy,100,2013-05-22 18:53:00
1:53 PM,73.9,35.1,24,29.75,10.0,ENE,6.9,-,N/A,,Partly Cloudy,70,2013-05-22 19:53:00
2:53 PM,75.0,33.1,22,29.75,10.0,ENE,8.1,-,N/A,,Scattered Clouds,70,2013-05-22 20:53:00
3:53 PM,75.9,33.1,21,29.74,10.0,East,15.0,19.6,N/A,,Scattered Clouds,100,2013-05-22 21:53:00
4:53 PM,75.9,30.9,19,29.74,10.0,East,9.2,19.6,N/A,,Scattered Clouds,90,2013-05-22 22:53:00
5:53 PM,75.0,32.0,21,29.73,10.0,East,11.5,-,N/A,,Scattered Clouds,100,2013-05-22 23:53:00
6:53 PM,72.0,35.1,26,29.74,10.0,East,11.5,-,N/A,,Scattered Clouds,90,2013-05-23 00:53:00
7:53 PM,64.0,44.1,48,29.80,8.0,ENE,26.5,32.2,0.00,Rain,Light Rain,60,2013-05-23 01:53:00
8:02 PM,62.6,44.6,52,29.96,8.0,ENE,17.3,34.5,0.00,Rain-Thunderstorm,Light Thunderstorms and Rain,60,2013-05-23 02:02:00
8:34 PM,59.0,46.4,63,30.00,10.0,NNE,12.7,-,0.00,Rain,Light Rain,30,2013-05-23 02:34:00
8:53 PM,57.9,46.9,67,29.90,7.0,North,8.1,20.7,0.00,Rain,Light Rain,10,2013-05-23 02:53:00
9:53 PM,55.0,48.0,77,29.93,10.0,East,16.1,-,0.03,Rain,Light Rain,80,2013-05-23 03:53:00
10:53 PM,53.1,48.0,83,29.91,10.0,ENE,17.3,-,0.03,,Scattered Clouds,70,2013-05-23 04:53:00
11:53 PM,52.0,46.9,83,29.92,10.0,East,12.7,-,N/A,,Mostly Cloudy,90,2013-05-23 05:53:00